Time,TemperatureF,DewpointF,PressureIn,WindDirection,WindDirectionDegrees,WindSpeedMPH,WindSpeedGustMPH,Humidity,HourlyPrecipIn,Conditions,Clouds,dailyrainin,SolarRadiationWatts/m^2,SoftwareType,DateUTC
2013-01-26 00:00:00,38.9,36.2,30.20,North,5,1.0,5.0,90,0.00,,,0.00,0,HR-IXPWINDi_r2_v1.2.,2013-01-26 05:00:00,
2013-01-26 00:05:00,38.8,36.1,30.20,ESE,112,4.0,5.0,90,0.00,,,0.00,0,HR-IXPWINDi_r2_v1.2.,2013-01-26 05:05:00,
2013-01-26 00:10:00,38.7,36.0,30.20,North,349,1.0,8.0,90,0.00,,,0.00,0,HR-IXPWINDi_r2_v1.2.,2013-01-26 05:10:00,
2013-01-26 00:16:00,38.6,36.2,30.20,North,349,0.0,8.0,91,0.00,,,0.00,0,HR-IXPWINDi_r2_v1.2.,2013-01-26 05:16:00,
2013-01-26 00:21:00,38.5,36.1,30.20,North,5,6.0,10.0,91,0.00,,,0.00,0,HR-IXPWINDi_r2_v1.2.,2013-01-26 05:21:00,
2013-01-26 00:26:00,38.6,35.9,30.20,NNW,342,3.0,10.0,90,0.00,,,0.00,0,HR-IXPWINDi_r2_v1.2.,2013-01-26 05:26:00,
2013-01-26 00:31:00,38.6,35.9,30.20,North,11,0.0,7.0,90,0.00,,,0.00,0,HR-IXPWINDi_r2_v1.2.,2013-01-26 05:31:00,
2013-01-26 00:37:00,38.7,36.0,30.21,NW,304,1.0,6.0,90,0.00,,,0.00,0,HR-IXPWINDi_r2_v1.2.,2013-01-26 05:37:00,
2013-01-26 00:42:00,38.7,36.0,30.21,North,5,5.0,5.0,90,0.00,,,0.00,0,HR-IXPWINDi_r2_v1.2.,2013-01-26 05:42:00,
2013-01-26 00:47:00,38.7,35.7,30.21,WNW,300,0.0,10.0,89,0.00,,,0.00,0,HR-IXPWINDi_r2_v1.2.,2013-01-26 05:47:00,
2013-01-26 00:52:00,38.6,35.6,30.20,NNW,344,3.0,10.0,89,0.00,,,0.00,0,HR-IXPWINDi_r2_v1.2.,2013-01-26 05:52:00,
2013-01-26 00:58:00,38.6,35.6,30.21,NNW,344,0.0,8.0,89,0.00,,,0.00,0,HR-IXPWINDi_r2_v1.2.,2013-01-26 05:58:00,
2013-01-26 01:03:00,38.5,35.5,30.20,NNW,341,5.0,15.0,89,0.00,,,0.00,0,HR-IXPWINDi_r2_v1.2.,2013-01-26 06:03:00,
2013-01-26 01:08:00,38.4,35.4,30.20,NNW,346,2.0,15.0,89,0.00,,,0.00,0,HR-IXPWINDi_r2_v1.2.,2013-01-26 06:08:00,
2013-01-26 01:13:00,38.2,35.2,30.20,NW,311,3.0,10.0,89,0.00,,,0.00,0,HR-IXPWINDi_r2_v1.2.,2013-01-26 06:13:00,
2013-01-26 01:18:00,38.1,35.1,30.20,North,360,7.0,7.0,89,0.00,,,0.00,0,HR-IXPWINDi_r2_v1.2.,2013-01-26 06:18:00,
2013-01-26 01:23:00,37.9,34.9,30.21,North,355,3.0,8.0,89,0.00,,,0.00,0,HR-IXPWINDi_r2_v1.2.,2013-01-26 06:23:00,
2013-01-26 01:29:00,37.8,35.1,30.21,NW,313,3.0,10.0,90,0.00,,,0.00,0,HR-IXPWINDi_r2_v1.2.,2013-01-26 06:29:00,
2013-01-26 01:34:00,37.7,35.0,30.21,WNW,288,0.0,10.0,90,0.00,,,0.00,0,HR-IXPWINDi_r2_v1.2.,2013-01-26 06:34:00,
2013-01-26 01:39:00,37.5,34.8,30.21,NNW,330,3.0,11.0,90,0.00,,,0.00,0,HR-IXPWINDi_r2_v1.2.,2013-01-26 06:39:00,
2013-01-26 01:45:00,37.4,34.7,30.21,North,351,5.0,11.0,90,0.00,,,0.00,0,HR-IXPWINDi_r2_v1.2.,2013-01-26 06:45:00,
2013-01-26 01:50:00,37.3,34.6,30.21,North,351,5.0,10.0,90,0.00,,,0.00,0,HR-IXPWINDi_r2_v1.2.,2013-01-26 06:50:00,
2013-01-26 01:55:00,37.2,34.5,30.21,North,360,2.0,10.0,90,0.00,,,0.00,0,HR-IXPWINDi_r2_v1.2.,2013-01-26 06:55:00,
2013-01-26 02:00:00,37.2,34.5,30.21,NW,315,4.0,10.0,90,0.00,,,0.00,0,HR-IXPWINDi_r2_v1.2.,2013-01-26 07:00:00,
2013-01-26 02:05:00,37.1,34.4,30.21,NW,304,3.0,13.0,90,0.00,,,0.00,0,HR-IXPWINDi_r2_v1.2.,2013-01-26 07:05:00,
2013-01-26 02:10:00,37.1,34.4,30.21,NW,316,1.0,13.0,90,0.00,,,0.00,0,HR-IXPWINDi_r2_v1.2.,2013-01-26 07:10:00,
2013-01-26 02:16:00,37.0,34.3,30.21,SSW,207,4.0,6.0,90,0.00,,,0.00,0,HR-IXPWINDi_r2_v1.2.,2013-01-26 07:16:00,
2013-01-26 02:21:00,36.9,34.2,30.21,NNW,342,14.0,14.0,90,0.00,,,0.00,0,HR-IXPWINDi_r2_v1.2.,2013-01-26 07:21:00,
2013-01-26 02:26:00,36.9,34.2,30.21,NE,36,4.0,14.0,90,0.00,,,0.00,0,HR-IXPWINDi_r2_v1.2.,2013-01-26 07:26:00,
2013-01-26 02:31:00,36.9,34.2,30.21,ENE,58,3.0,14.0,90,0.00,,,0.00,0,HR-IXPWINDi_r2_v1.2.,2013-01-26 07:31:00,
2013-01-26 02:36:00,36.8,33.8,30.21,West,279,2.0,13.0,89,0.00,,,0.00,0,HR-IXPWINDi_r2_v1.2.,2013-01-26 07:36:00,
2013-01-26 02:42:00,36.8,33.8,30.22,WNW,282,9.0,15.0,89,0.00,,,0.00,0,HR-IXPWINDi_r2_v1.2.,2013-01-26 07:42:00,
2013-01-26 02:47:00,36.7,33.4,30.22,North,355,1.0,15.0,88,0.00,,,0.00,0,HR-IXPWINDi_r2_v1.2.,2013-01-26 07:47:00,
2013-01-26 02:52:00,36.8,33.5,30.21,North,360,2.0,13.0,88,0.00,,,0.00,0,HR-IXPWINDi_r2_v1.2.,2013-01-26 07:52:00,
2013-01-26 02:57:00,36.7,33.2,30.21,NW,310,8.0,18.0,87,0.00,,,0.00,0,HR-IXPWINDi_r2_v1.2.,2013-01-26 07:57:00,
2013-01-26 03:02:00,36.6,33.1,30.21,NE,49,7.0,18.0,87,0.00,,,0.00,0,HR-IXPWINDi_r2_v1.2.,2013-01-26 08:02:00,
2013-01-26 03:08:00,36.6,32.8,30.21,WNW,294,3.0,12.0,86,0.00,,,0.00,0,HR-IXPWINDi_r2_v1.2.,2013-01-26 08:08:00,
2013-01-26 03:13:00,36.4,32.6,30.21,North,5,3.0,12.0,86,0.00,,,0.00,0,HR-IXPWINDi_r2_v1.2.,2013-01-26 08:13:00,
2013-01-26 03:18:00,36.4,32.6,30.21,NNW,343,6.0,8.0,86,0.00,,,0.00,0,HR-IXPWINDi_r2_v1.2.,2013-01-26 08:18:00,
2013-01-26 03:23:00,36.2,32.4,30.21,North,355,2.0,8.0,86,0.00,,,0.00,0,HR-IXPWINDi_r2_v1.2.,2013-01-26 08:23:00,
2013-01-26 03:28:00,36.1,32.3,30.22,NW,321,3.0,13.0,86,0.00,,,0.00,0,HR-IXPWINDi_r2_v1.2.,2013-01-26 08:28:00,
2013-01-26 03:34:00,36.0,32.2,30.22,WSW,246,0.0,13.0,86,0.00,,,0.00,0,HR-IXPWINDi_r2_v1.2.,2013-01-26 08:34:00,
2013-01-26 03:39:00,35.9,32.1,30.22,North,355,1.0,6.0,86,0.00,,,0.00,0,HR-IXPWINDi_r2_v1.2.,2013-01-26 08:39:00,
2013-01-26 03:44:00,35.8,32.0,30.22,NNW,342,3.0,7.0,86,0.00,,,0.00,0,HR-IXPWINDi_r2_v1.2.,2013-01-26 08:44:00,
2013-01-26 03:49:00,35.6,31.8,30.22,NW,324,1.0,7.0,86,0.00,,,0.00,0,HR-IXPWINDi_r2_v1.2.,2013-01-26 08:49:00,
2013-01-26 03:54:00,35.6,31.8,30.22,NNW,331,2.0,7.0,86,0.00,,,0.00,0,HR-IXPWINDi_r2_v1.2.,2013-01-26 08:54:00,
2013-01-26 03:59:00,35.5,31.7,30.22,NNW,342,6.0,8.0,86,0.00,,,0.00,0,HR-IXPWINDi_r2_v1.2.,2013-01-26 08:59:00,
2013-01-26 04:04:00,35.3,31.5,30.22,NW,306,5.0,8.0,86,0.00,,,0.00,0,HR-IXPWINDi_r2_v1.2.,2013-01-26 09:04:00,
2013-01-26 04:09:00,35.1,31.3,30.22,North,355,3.0,10.0,86,0.00,,,0.00,0,HR-IXPWINDi_r2_v1.2.,2013-01-26 09:09:00,
2013-01-26 04:15:00,35.1,31.3,30.22,East,101,0.0,10.0,86,0.00,,,0.00,0,HR-IXPWINDi_r2_v1.2.,2013-01-26 09:15:00,
2013-01-26 04:20:00,35.0,31.5,30.23,NNW,346,2.0,5.0,87,0.00,,,0.00,0,HR-IXPWINDi_r2_v1.2.,2013-01-26 09:20:00,
2013-01-26 04:25:00,34.8,31.3,30.22,South,191,0.0,10.0,87,0.00,,,0.00,0,HR-IXPWINDi_r2_v1.2.,2013-01-26 09:25:00,
2013-01-26 04:30:00,34.8,31.0,30.23,WNW,286,6.0,10.0,86,0.00,,,0.00,0,HR-IXPWINDi_r2_v1.2.,2013-01-26 09:30:00,
2013-01-26 04:36:00,34.6,31.1,30.23,NNW,338,0.0,9.0,87,0.00,,,0.00,0,HR-IXPWINDi_r2_v1.2.,2013-01-26 09:36:00,
2013-01-26 04:41:00,34.5,31.0,30.23,NW,323,4.0,6.0,87,0.00,,,0.00,0,HR-IXPWINDi_r2_v1.2.,2013-01-26 09:41:00,
2013-01-26 04:46:00,34.3,30.5,30.23,West,267,1.0,8.0,86,0.00,,,0.00,0,HR-IXPWINDi_r2_v1.2.,2013-01-26 09:46:00,
2013-01-26 04:51:00,34.3,30.5,30.23,North,5,4.0,12.0,86,0.00,,,0.00,0,HR-IXPWINDi_r2_v1.2.,2013-01-26 09:51:00,
2013-01-26 04:56:00,34.4,30.6,30.23,NNE,19,3.0,12.0,86,0.00,,,0.00,0,HR-IXPWINDi_r2_v1.2.,2013-01-26 09:56:00,
2013-01-26 05:02:00,34.4,30.6,30.23,NNW,342,5.0,6.0,86,0.00,,,0.00,0,HR-IXPWINDi_r2_v1.2.,2013-01-26 10:02:00,
2013-01-26 05:07:00,34.3,30.5,30.23,NNW,342,4.0,6.0,86,0.00,,,0.00,0,HR-IXPWINDi_r2_v1.2.,2013-01-26 10:07:00,
2013-01-26 05:12:00,34.2,30.1,30.23,NNW,329,0.0,9.0,85,0.00,,,0.00,0,HR-IXPWINDi_r2_v1.2.,2013-01-26 10:12:00,
2013-01-26 05:17:00,34.1,30.0,30.23,WSW,252,0.0,10.0,85,0.00,,,0.00,0,HR-IXPWINDi_r2_v1.2.,2013-01-26 10:17:00,
2013-01-26 05:23:00,33.7,29.9,30.23,NW,324,7.0,10.0,86,0.00,,,0.00,0,HR-IXPWINDi_r2_v1.2.,2013-01-26 10:23:00,
2013-01-26 05:28:00,33.7,29.9,30.23,East,89,1.0,9.0,86,0.00,,,0.00,0,HR-IXPWINDi_r2_v1.2.,2013-01-26 10:28:00,
2013-01-26 05:33:00,33.7,29.9,30.23,NW,326,0.0,8.0,86,0.00,,,0.00,0,HR-IXPWINDi_r2_v1.2.,2013-01-26 10:33:00,
2013-01-26 05:38:00,33.6,29.8,30.24,NW,325,8.0,9.0,86,0.00,,,0.00,0,HR-IXPWINDi_r2_v1.2.,2013-01-26 10:38:00,
2013-01-26 05:43:00,33.5,29.7,30.24,NNW,346,4.0,17.0,86,0.00,,,0.00,0,HR-IXPWINDi_r2_v1.2.,2013-01-26 10:43:00,
2013-01-26 05:48:00,33.3,29.5,30.24,NNE,14,1.0,17.0,86,0.00,,,0.00,0,HR-IXPWINDi_r2_v1.2.,2013-01-26 10:48:00,
2013-01-26 05:53:00,33.2,29.4,30.24,NW,306,0.0,6.0,86,0.00,,,0.00,0,HR-IXPWINDi_r2_v1.2.,2013-01-26 10:53:00,
2013-01-26 05:59:00,33.2,29.4,30.25,North,360,4.0,9.0,86,0.00,,,0.00,0,HR-IXPWINDi_r2_v1.2.,2013-01-26 10:59:00,
2013-01-26 06:04:00,33.1,29.3,30.25,NW,308,5.0,10.0,86,0.00,,,0.00,0,HR-IXPWINDi_r2_v1.2.,2013-01-26 11:04:00,
2013-01-26 06:09:00,33.0,29.0,30.25,North,5,3.0,13.0,85,0.00,,,0.00,0,HR-IXPWINDi_r2_v1.2.,2013-01-26 11:09:00,
2013-01-26 06:14:00,32.9,28.9,30.25,West,279,10.0,13.0,85,0.00,,,0.00,0,HR-IXPWINDi_r2_v1.2.,2013-01-26 11:14:00,
2013-01-26 06:20:00,32.9,28.9,30.25,North,355,2.0,10.0,85,0.00,,,0.00,0,HR-IXPWINDi_r2_v1.2.,2013-01-26 11:20:00,
2013-01-26 06:25:00,32.8,29.1,30.26,NNW,342,0.0,10.0,86,0.00,,,0.00,0,HR-IXPWINDi_r2_v1.2.,2013-01-26 11:25:00,
2013-01-26 06:30:00,32.7,29.0,30.26,NNW,333,1.0,5.0,86,0.00,,,0.00,0,HR-IXPWINDi_r2_v1.2.,2013-01-26 11:30:00,
2013-01-26 06:35:00,32.6,28.6,30.26,NNW,327,3.0,17.0,85,0.00,,,0.00,0,HR-IXPWINDi_r2_v1.2.,2013-01-26 11:35:00,
2013-01-26 06:40:00,32.6,28.6,30.27,North,5,2.0,17.0,85,0.00,,,0.00,0,HR-IXPWINDi_r2_v1.2.,2013-01-26 11:40:00,
2013-01-26 06:46:00,32.6,28.6,30.27,NE,34,2.0,11.0,85,0.00,,,0.00,0,HR-IXPWINDi_r2_v1.2.,2013-01-26 11:46:00,
2013-01-26 06:51:00,32.5,28.5,30.27,North,10,1.0,4.0,85,0.00,,,0.00,0,HR-IXPWINDi_r2_v1.2.,2013-01-26 11:51:00,
2013-01-26 06:56:00,32.4,28.4,30.27,NNW,341,6.0,10.0,85,0.00,,,0.00,0,HR-IXPWINDi_r2_v1.2.,2013-01-26 11:56:00,
2013-01-26 07:01:00,32.3,28.0,30.27,WSW,249,1.0,10.0,84,0.00,,,0.00,0,HR-IXPWINDi_r2_v1.2.,2013-01-26 12:01:00,
2013-01-26 07:07:00,32.3,28.0,30.27,NNW,330,0.0,9.0,84,0.00,,,0.00,0,HR-IXPWINDi_r2_v1.2.,2013-01-26 12:07:00,
2013-01-26 07:12:00,32.2,28.2,30.27,NNW,330,2.0,6.0,85,0.00,,,0.00,0,HR-IXPWINDi_r2_v1.2.,2013-01-26 12:12:00,
2013-01-26 07:17:00,32.2,28.2,30.27,North,350,0.0,3.0,85,0.00,,,0.00,0,HR-IXPWINDi_r2_v1.2.,2013-01-26 12:17:00,
2013-01-26 07:22:00,32.2,28.2,30.27,NNW,348,0.0,3.0,85,0.00,,,0.00,0,HR-IXPWINDi_r2_v1.2.,2013-01-26 12:22:00,
2013-01-26 07:27:00,32.1,28.1,30.27,NNW,340,5.0,5.0,85,0.00,,,0.00,0,HR-IXPWINDi_r2_v1.2.,2013-01-26 12:27:00,
2013-01-26 07:32:00,32.1,28.1,30.27,NNW,333,4.0,5.0,85,0.00,,,0.00,0,HR-IXPWINDi_r2_v1.2.,2013-01-26 12:32:00,
2013-01-26 07:38:00,32.0,27.7,30.27,North,9,0.0,5.0,84,0.00,,,0.00,0,HR-IXPWINDi_r2_v1.2.,2013-01-26 12:38:00,
2013-01-26 07:43:00,32.0,27.7,30.28,NNW,347,4.0,9.0,84,0.00,,,0.00,0,HR-IXPWINDi_r2_v1.2.,2013-01-26 12:43:00,
2013-01-26 07:48:00,31.9,27.6,30.28,NNW,329,3.0,9.0,84,0.00,,,0.00,5,HR-IXPWINDi_r2_v1.2.,2013-01-26 12:48:00,
2013-01-26 07:53:00,31.9,27.3,30.28,NNW,342,6.0,9.0,83,0.00,,,0.00,9,HR-IXPWINDi_r2_v1.2.,2013-01-26 12:53:00,
2013-01-26 07:58:00,31.9,27.3,30.28,NNW,328,3.0,9.0,83,0.00,,,0.00,11,HR-IXPWINDi_r2_v1.2.,2013-01-26 12:58:00,
2013-01-26 08:04:00,32.0,27.4,30.28,NNE,21,2.0,7.0,83,0.00,,,0.00,14,HR-IXPWINDi_r2_v1.2.,2013-01-26 13:04:00,
2013-01-26 08:09:00,32.0,27.4,30.28,NNW,335,0.0,5.0,83,0.00,,,0.00,16,HR-IXPWINDi_r2_v1.2.,2013-01-26 13:09:00,
2013-01-26 08:14:00,32.0,27.4,30.28,North,360,4.0,7.0,83,0.00,,,0.00,23,HR-IXPWINDi_r2_v1.2.,2013-01-26 13:14:00,
2013-01-26 08:20:00,32.0,27.4,30.28,SSW,197,0.0,7.0,83,0.00,,,0.00,33,HR-IXPWINDi_r2_v1.2.,2013-01-26 13:20:00,
2013-01-26 08:25:00,31.9,27.3,30.27,NNW,339,0.0,6.0,83,0.00,,,0.00,39,HR-IXPWINDi_r2_v1.2.,2013-01-26 13:25:00,
2013-01-26 08:31:00,31.9,27.3,30.27,WNW,302,0.0,5.0,83,0.00,,,0.00,49,HR-IXPWINDi_r2_v1.2.,2013-01-26 13:31:00,
2013-01-26 08:36:00,31.9,27.0,30.28,NW,309,3.0,5.0,82,0.00,,,0.00,60,HR-IXPWINDi_r2_v1.2.,2013-01-26 13:36:00,
2013-01-26 08:41:00,32.0,27.1,30.28,North,350,1.0,5.0,82,0.00,,,0.00,70,HR-IXPWINDi_r2_v1.2.,2013-01-26 13:41:00,
2013-01-26 08:46:00,32.1,27.2,30.28,North,351,0.0,5.0,82,0.00,,,0.00,77,HR-IXPWINDi_r2_v1.2.,2013-01-26 13:46:00,
2013-01-26 08:52:00,32.1,26.9,30.28,North,351,0.0,2.0,81,0.00,,,0.00,90,HR-IXPWINDi_r2_v1.2.,2013-01-26 13:52:00,
2013-01-26 08:57:00,32.4,27.2,30.28,North,351,0.0,1.0,81,0.00,,,0.00,97,HR-IXPWINDi_r2_v1.2.,2013-01-26 13:57:00,
2013-01-26 09:02:00,32.5,27.3,30.29,North,355,0.0,4.0,81,0.00,,,0.00,88,HR-IXPWINDi_r2_v1.2.,2013-01-26 14:02:00,
2013-01-26 09:07:00,32.6,27.1,30.29,North,355,1.0,4.0,80,0.00,,,0.00,83,HR-IXPWINDi_r2_v1.2.,2013-01-26 14:07:00,
2013-01-26 09:12:00,32.6,26.5,30.29,North,355,0.0,3.0,78,0.00,,,0.00,72,HR-IXPWINDi_r2_v1.2.,2013-01-26 14:12:00,
2013-01-26 09:17:00,32.6,26.5,30.30,North,355,0.0,2.0,78,0.00,,,0.00,76,HR-IXPWINDi_r2_v1.2.,2013-01-26 14:17:00,
2013-01-26 09:23:00,32.8,26.4,30.29,North,360,2.0,3.0,77,0.00,,,0.00,88,HR-IXPWINDi_r2_v1.2.,2013-01-26 14:23:00,
2013-01-26 09:28:00,33.0,26.3,30.30,WNW,284,0.0,3.0,76,0.00,,,0.00,114,HR-IXPWINDi_r2_v1.2.,2013-01-26 14:28:00,
2013-01-26 09:33:00,33.3,26.2,30.30,WNW,284,0.0,3.0,75,0.00,,,0.00,127,HR-IXPWINDi_r2_v1.2.,2013-01-26 14:33:00,
2013-01-26 09:38:00,33.4,26.0,30.30,North,9,3.0,4.0,74,0.00,,,0.00,91,HR-IXPWINDi_r2_v1.2.,2013-01-26 14:38:00,
2013-01-26 09:44:00,33.5,25.4,30.30,NW,324,3.0,4.0,72,0.00,,,0.00,86,HR-IXPWINDi_r2_v1.2.,2013-01-26 14:44:00,
2013-01-26 09:49:00,33.5,25.1,30.30,NW,324,0.0,4.0,71,0.00,,,0.00,86,HR-IXPWINDi_r2_v1.2.,2013-01-26 14:49:00,
2013-01-26 09:54:00,33.6,24.9,30.31,NW,322,0.0,4.0,70,0.00,,,0.00,192,HR-IXPWINDi_r2_v1.2.,2013-01-26 14:54:00,
2013-01-26 09:59:00,34.1,24.6,30.31,NE,40,0.0,2.0,68,0.00,,,0.00,221,HR-IXPWINDi_r2_v1.2.,2013-01-26 14:59:00,
2013-01-26 10:05:00,34.6,25.1,30.31,ENE,73,2.0,2.0,68,0.00,,,0.00,346,HR-IXPWINDi_r2_v1.2.,2013-01-26 15:05:00,
2013-01-26 10:10:00,34.9,25.8,30.31,ENE,71,0.0,9.0,69,0.00,,,0.00,234,HR-IXPWINDi_r2_v1.2.,2013-01-26 15:10:00,
2013-01-26 10:15:00,35.3,24.7,30.31,East,99,1.0,9.0,65,0.00,,,0.00,183,HR-IXPWINDi_r2_v1.2.,2013-01-26 15:15:00,
2013-01-26 10:20:00,35.5,24.1,30.31,East,87,2.0,5.0,63,0.00,,,0.00,202,HR-IXPWINDi_r2_v1.2.,2013-01-26 15:20:00,
2013-01-26 10:26:00,35.7,24.7,30.31,NE,46,3.0,5.0,64,0.00,,,0.00,225,HR-IXPWINDi_r2_v1.2.,2013-01-26 15:26:00,
2013-01-26 10:31:00,36.2,24.0,30.32,NNW,346,1.0,9.0,61,0.00,,,0.00,441,HR-IXPWINDi_r2_v1.2.,2013-01-26 15:31:00,
2013-01-26 10:36:00,36.8,24.2,30.31,North,360,2.0,9.0,60,0.00,,,0.00,260,HR-IXPWINDi_r2_v1.2.,2013-01-26 15:36:00,
2013-01-26 10:41:00,36.9,24.3,30.31,NNW,328,2.0,9.0,60,0.00,,,0.00,174,HR-IXPWINDi_r2_v1.2.,2013-01-26 15:41:00,
2013-01-26 10:46:00,37.0,24.4,30.32,NNW,348,3.0,6.0,60,0.00,,,0.00,178,HR-IXPWINDi_r2_v1.2.,2013-01-26 15:46:00,
2013-01-26 10:52:00,36.9,23.9,30.32,NNW,332,4.0,9.0,59,0.00,,,0.00,218,HR-IXPWINDi_r2_v1.2.,2013-01-26 15:52:00,
2013-01-26 10:57:00,37.3,23.9,30.32,North,360,1.0,9.0,58,0.00,,,0.00,383,HR-IXPWINDi_r2_v1.2.,2013-01-26 15:57:00,
2013-01-26 11:02:00,37.5,22.4,30.32,NE,34,0.0,10.0,54,0.00,,,0.00,229,HR-IXPWINDi_r2_v1.2.,2013-01-26 16:02:00,
2013-01-26 11:07:00,38.0,23.3,30.32,North,355,2.0,10.0,55,0.00,,,0.00,269,HR-IXPWINDi_r2_v1.2.,2013-01-26 16:07:00,
2013-01-26 11:12:00,38.1,23.8,30.32,North,360,12.0,15.0,56,0.00,,,0.00,288,HR-IXPWINDi_r2_v1.2.,2013-01-26 16:12:00,
2013-01-26 11:18:00,38.2,22.6,30.32,North,9,10.0,17.0,53,0.00,,,0.00,350,HR-IXPWINDi_r2_v1.2.,2013-01-26 16:18:00,
2013-01-26 11:23:00,37.8,21.3,30.32,NNW,348,4.0,17.0,51,0.00,,,0.00,320,HR-IXPWINDi_r2_v1.2.,2013-01-26 16:23:00,
2013-01-26 11:28:00,37.8,21.8,30.32,WNW,290,8.0,17.0,52,0.00,,,0.00,229,HR-IXPWINDi_r2_v1.2.,2013-01-26 16:28:00,
2013-01-26 11:33:00,38.1,22.5,30.32,North,355,9.0,11.0,53,0.00,,,0.00,475,HR-IXPWINDi_r2_v1.2.,2013-01-26 16:33:00,
2013-01-26 11:38:00,38.2,21.7,30.32,North,5,3.0,12.0,51,0.00,,,0.00,276,HR-IXPWINDi_r2_v1.2.,2013-01-26 16:38:00,
2013-01-26 11:44:00,37.9,21.4,30.32,NNE,30,0.0,21.0,51,0.00,,,0.00,236,HR-IXPWINDi_r2_v1.2.,2013-01-26 16:44:00,
2013-01-26 11:49:00,38.5,22.4,30.32,NNW,347,5.0,21.0,52,0.00,,,0.00,188,HR-IXPWINDi_r2_v1.2.,2013-01-26 16:49:00,
2013-01-26 11:54:00,37.8,21.3,30.31,NW,321,0.0,5.0,51,0.00,,,0.00,148,HR-IXPWINDi_r2_v1.2.,2013-01-26 16:54:00,
2013-01-26 11:59:00,37.6,21.6,30.31,West,261,2.0,5.0,52,0.00,,,0.00,186,HR-IXPWINDi_r2_v1.2.,2013-01-26 16:59:00,
2013-01-26 12:04:00,38.1,21.6,30.31,SE,140,1.0,5.0,51,0.00,,,0.00,621,HR-IXPWINDi_r2_v1.2.,2013-01-26 17:04:00,
2013-01-26 12:10:00,38.9,23.2,30.30,North,355,8.0,10.0,53,0.00,,,0.00,598,HR-IXPWINDi_r2_v1.2.,2013-01-26 17:10:00,
2013-01-26 12:15:00,38.8,23.1,30.30,North,355,6.0,10.0,53,0.00,,,0.00,534,HR-IXPWINDi_r2_v1.2.,2013-01-26 17:15:00,
2013-01-26 12:21:00,39.2,23.5,30.30,SSW,209,4.0,12.0,53,0.00,,,0.00,531,HR-IXPWINDi_r2_v1.2.,2013-01-26 17:21:00,
2013-01-26 12:26:00,40.1,24.8,30.30,SSW,211,1.0,12.0,54,0.00,,,0.00,418,HR-IXPWINDi_r2_v1.2.,2013-01-26 17:26:00,
2013-01-26 12:31:00,40.2,24.9,30.30,SE,133,0.0,6.0,54,0.00,,,0.00,151,HR-IXPWINDi_r2_v1.2.,2013-01-26 17:31:00,
2013-01-26 12:36:00,39.5,24.7,30.30,WSW,240,0.0,6.0,55,0.00,,,0.00,186,HR-IXPWINDi_r2_v1.2.,2013-01-26 17:36:00,
2013-01-26 12:41:00,39.8,24.5,30.30,NNW,329,2.0,6.0,54,0.00,,,0.00,199,HR-IXPWINDi_r2_v1.2.,2013-01-26 17:41:00,
2013-01-26 12:46:00,39.2,23.0,30.29,NE,34,3.0,4.0,52,0.00,,,0.00,148,HR-IXPWINDi_r2_v1.2.,2013-01-26 17:46:00,
2013-01-26 12:52:00,38.6,23.4,30.29,NNE,31,6.0,8.0,54,0.00,,,0.00,121,HR-IXPWINDi_r2_v1.2.,2013-01-26 17:52:00,
2013-01-26 12:57:00,38.1,22.9,30.29,North,355,6.0,10.0,54,0.00,,,0.00,118,HR-IXPWINDi_r2_v1.2.,2013-01-26 17:57:00,
2013-01-26 13:02:00,38.1,22.9,30.29,WNW,302,0.0,10.0,54,0.00,,,0.00,174,HR-IXPWINDi_r2_v1.2.,2013-01-26 18:02:00,
2013-01-26 13:07:00,38.3,24.0,30.28,North,355,2.0,8.0,56,0.00,,,0.00,202,HR-IXPWINDi_r2_v1.2.,2013-01-26 18:07:00,
2013-01-26 13:12:00,38.7,23.9,30.28,NNW,330,0.0,6.0,55,0.00,,,0.00,417,HR-IXPWINDi_r2_v1.2.,2013-01-26 18:12:00,
2013-01-26 13:17:00,40.2,25.3,30.28,South,183,3.0,6.0,55,0.00,,,0.00,564,HR-IXPWINDi_r2_v1.2.,2013-01-26 18:17:00,
2013-01-26 13:22:00,41.0,26.9,30.27,SW,222,1.0,7.0,57,0.00,,,0.00,417,HR-IXPWINDi_r2_v1.2.,2013-01-26 18:22:00,
2013-01-26 13:27:00,40.2,24.4,30.27,NE,42,1.0,7.0,53,0.00,,,0.00,448,HR-IXPWINDi_r2_v1.2.,2013-01-26 18:27:00,
2013-01-26 13:33:00,41.8,26.8,30.27,North,5,0.0,7.0,55,0.00,,,0.00,464,HR-IXPWINDi_r2_v1.2.,2013-01-26 18:33:00,
2013-01-26 13:38:00,42.2,26.3,30.27,SW,219,0.0,7.0,53,0.00,,,0.00,529,HR-IXPWINDi_r2_v1.2.,2013-01-26 18:38:00,
2013-01-26 13:43:00,42.9,25.5,30.27,NW,321,2.0,7.0,50,0.00,,,0.00,506,HR-IXPWINDi_r2_v1.2.,2013-01-26 18:43:00,
2013-01-26 13:48:00,43.0,25.1,30.26,SW,230,2.0,7.0,49,0.00,,,0.00,292,HR-IXPWINDi_r2_v1.2.,2013-01-26 18:48:00,
2013-01-26 13:53:00,42.7,24.4,30.26,WSW,252,2.0,8.0,48,0.00,,,0.00,294,HR-IXPWINDi_r2_v1.2.,2013-01-26 18:53:00,
2013-01-26 13:59:00,42.7,24.4,30.26,WSW,248,3.0,8.0,48,0.00,,,0.00,287,HR-IXPWINDi_r2_v1.2.,2013-01-26 18:59:00,
2013-01-26 14:04:00,42.3,23.5,30.26,SW,233,2.0,8.0,47,0.00,,,0.00,288,HR-IXPWINDi_r2_v1.2.,2013-01-26 19:04:00,
2013-01-26 14:09:00,42.4,23.6,30.26,NW,316,0.0,9.0,47,0.00,,,0.00,534,HR-IXPWINDi_r2_v1.2.,2013-01-26 19:09:00,
2013-01-26 14:14:00,43.2,24.8,30.26,SSW,200,3.0,9.0,48,0.00,,,0.00,527,HR-IXPWINDi_r2_v1.2.,2013-01-26 19:14:00,
2013-01-26 14:19:00,44.0,25.6,30.26,SW,216,2.0,8.0,48,0.00,,,0.00,501,HR-IXPWINDi_r2_v1.2.,2013-01-26 19:19:00,
2013-01-26 14:25:00,44.5,26.5,30.26,SW,234,2.0,8.0,49,0.00,,,0.00,427,HR-IXPWINDi_r2_v1.2.,2013-01-26 19:25:00,
2013-01-26 14:30:00,44.6,26.6,30.26,SSW,202,8.0,9.0,49,0.00,,,0.00,408,HR-IXPWINDi_r2_v1.2.,2013-01-26 19:30:00,
2013-01-26 14:35:00,44.7,26.7,30.26,SSW,213,4.0,9.0,49,0.00,,,0.00,482,HR-IXPWINDi_r2_v1.2.,2013-01-26 19:35:00,
2013-01-26 14:40:00,45.3,27.2,30.26,WNW,298,5.0,9.0,49,0.00,,,0.00,469,HR-IXPWINDi_r2_v1.2.,2013-01-26 19:40:00,
2013-01-26 14:46:00,45.5,27.9,30.26,West,261,0.0,6.0,50,0.00,,,0.00,455,HR-IXPWINDi_r2_v1.2.,2013-01-26 19:46:00,
2013-01-26 14:51:00,45.4,27.8,30.26,SSW,205,6.0,8.0,50,0.00,,,0.00,448,HR-IXPWINDi_r2_v1.2.,2013-01-26 19:51:00,
2013-01-26 14:56:00,45.5,28.4,30.26,NNW,330,3.0,8.0,51,0.00,,,0.00,452,HR-IXPWINDi_r2_v1.2.,2013-01-26 19:56:00,
2013-01-26 15:01:00,45.3,27.7,30.26,WSW,257,1.0,6.0,50,0.00,,,0.00,432,HR-IXPWINDi_r2_v1.2.,2013-01-26 20:01:00,
2013-01-26 15:06:00,45.6,26.0,30.26,NW,319,4.0,8.0,46,0.00,,,0.00,413,HR-IXPWINDi_r2_v1.2.,2013-01-26 20:06:00,
2013-01-26 15:11:00,45.5,26.4,30.26,North,355,0.0,8.0,47,0.00,,,0.00,403,HR-IXPWINDi_r2_v1.2.,2013-01-26 20:11:00,
2013-01-26 15:16:00,46.2,27.1,30.27,NW,322,4.0,7.0,47,0.00,,,0.00,388,HR-IXPWINDi_r2_v1.2.,2013-01-26 20:16:00,
2013-01-26 15:21:00,46.4,25.1,30.27,North,355,5.0,7.0,43,0.00,,,0.00,323,HR-IXPWINDi_r2_v1.2.,2013-01-26 20:21:00,
2013-01-26 15:27:00,45.0,26.5,30.27,NNW,338,11.0,14.0,48,0.00,,,0.00,373,HR-IXPWINDi_r2_v1.2.,2013-01-26 20:27:00,
2013-01-26 15:32:00,44.6,26.1,30.27,North,360,4.0,14.0,48,0.00,,,0.00,364,HR-IXPWINDi_r2_v1.2.,2013-01-26 20:32:00,
2013-01-26 15:37:00,45.2,26.1,30.27,NNW,344,2.0,12.0,47,0.00,,,0.00,352,HR-IXPWINDi_r2_v1.2.,2013-01-26 20:37:00,
2013-01-26 15:42:00,46.8,27.1,30.27,North,355,4.0,12.0,46,0.00,,,0.00,338,HR-IXPWINDi_r2_v1.2.,2013-01-26 20:42:00,
2013-01-26 15:48:00,45.9,24.7,30.27,East,87,5.0,10.0,43,0.00,,,0.00,323,HR-IXPWINDi_r2_v1.2.,2013-01-26 20:48:00,
2013-01-26 15:53:00,46.1,23.7,30.27,NNE,15,4.0,10.0,41,0.00,,,0.00,320,HR-IXPWINDi_r2_v1.2.,2013-01-26 20:53:00,
2013-01-26 15:58:00,45.7,21.5,30.27,NNW,329,6.0,10.0,38,0.00,,,0.00,330,HR-IXPWINDi_r2_v1.2.,2013-01-26 20:58:00,
2013-01-26 16:03:00,45.6,21.5,30.27,North,355,0.0,10.0,38,0.00,,,0.00,79,HR-IXPWINDi_r2_v1.2.,2013-01-26 21:03:00,
2013-01-26 16:08:00,45.2,21.7,30.27,NNW,346,0.0,9.0,39,0.00,,,0.00,70,HR-IXPWINDi_r2_v1.2.,2013-01-26 21:08:00,
2013-01-26 16:14:00,44.9,23.2,30.27,NNW,347,2.0,9.0,42,0.00,,,0.00,83,HR-IXPWINDi_r2_v1.2.,2013-01-26 21:14:00,
2013-01-26 16:19:00,44.4,22.2,30.28,NNW,338,3.0,8.0,41,0.00,,,0.00,90,HR-IXPWINDi_r2_v1.2.,2013-01-26 21:19:00,
2013-01-26 16:24:00,44.2,22.0,30.28,ENE,67,2.0,8.0,41,0.00,,,0.00,91,HR-IXPWINDi_r2_v1.2.,2013-01-26 21:24:00,
2013-01-26 16:29:00,43.8,22.2,30.28,NNE,27,4.0,5.0,42,0.00,,,0.00,139,HR-IXPWINDi_r2_v1.2.,2013-01-26 21:29:00,
2013-01-26 16:35:00,43.9,21.7,30.27,North,5,3.0,5.0,41,0.00,,,0.00,100,HR-IXPWINDi_r2_v1.2.,2013-01-26 21:35:00,
2013-01-26 16:40:00,43.9,21.7,30.28,NW,317,8.0,8.0,41,0.00,,,0.00,107,HR-IXPWINDi_r2_v1.2.,2013-01-26 21:40:00,
2013-01-26 16:45:00,43.9,22.3,30.28,NNW,345,2.0,8.0,42,0.00,,,0.00,132,HR-IXPWINDi_r2_v1.2.,2013-01-26 21:45:00,
2013-01-26 16:50:00,44.5,22.8,30.28,NNE,14,1.0,8.0,42,0.00,,,0.00,98,HR-IXPWINDi_r2_v1.2.,2013-01-26 21:50:00,
2013-01-26 16:55:00,44.6,22.3,30.28,NW,308,5.0,7.0,41,0.00,,,0.00,33,HR-IXPWINDi_r2_v1.2.,2013-01-26 21:55:00,
2013-01-26 17:00:00,43.8,23.3,30.28,North,355,0.0,7.0,44,0.00,,,0.00,26,HR-IXPWINDi_r2_v1.2.,2013-01-26 22:00:00,
2013-01-26 17:05:00,43.3,22.8,30.28,North,355,4.0,8.0,44,0.00,,,0.00,26,HR-IXPWINDi_r2_v1.2.,2013-01-26 22:05:00,
2013-01-26 17:11:00,43.2,22.8,30.29,North,5,4.0,8.0,44,0.00,,,0.00,26,HR-IXPWINDi_r2_v1.2.,2013-01-26 22:11:00,
2013-01-26 17:16:00,43.1,23.2,30.28,North,360,5.0,8.0,45,0.00,,,0.00,19,HR-IXPWINDi_r2_v1.2.,2013-01-26 22:16:00,
2013-01-26 17:21:00,42.7,23.4,30.28,North,5,4.0,8.0,46,0.00,,,0.00,16,HR-IXPWINDi_r2_v1.2.,2013-01-26 22:21:00,
2013-01-26 17:26:00,42.4,23.6,30.29,North,350,2.0,8.0,47,0.00,,,0.00,14,HR-IXPWINDi_r2_v1.2.,2013-01-26 22:26:00,
2013-01-26 17:31:00,42.3,23.0,30.29,North,5,0.0,6.0,46,0.00,,,0.00,12,HR-IXPWINDi_r2_v1.2.,2013-01-26 22:31:00,
2013-01-26 17:37:00,42.3,24.5,30.29,NNW,327,6.0,6.0,49,0.00,,,0.00,11,HR-IXPWINDi_r2_v1.2.,2013-01-26 22:37:00,
2013-01-26 17:42:00,42.0,23.7,30.29,North,355,0.0,7.0,48,0.00,,,0.00,11,HR-IXPWINDi_r2_v1.2.,2013-01-26 22:42:00,
2013-01-26 17:47:00,41.9,23.6,30.29,North,5,2.0,7.0,48,0.00,,,0.00,9,HR-IXPWINDi_r2_v1.2.,2013-01-26 22:47:00,
2013-01-26 17:52:00,41.5,24.7,30.30,North,355,3.0,6.0,51,0.00,,,0.00,5,HR-IXPWINDi_r2_v1.2.,2013-01-26 22:52:00,
2013-01-26 17:57:00,41.0,24.7,30.30,North,355,3.0,6.0,52,0.00,,,0.00,0,HR-IXPWINDi_r2_v1.2.,2013-01-26 22:57:00,
2013-01-26 18:02:00,40.6,24.8,30.30,North,355,4.0,6.0,53,0.00,,,0.00,0,HR-IXPWINDi_r2_v1.2.,2013-01-26 23:02:00,
2013-01-26 18:08:00,40.3,25.4,30.30,NNW,333,1.0,6.0,55,0.00,,,0.00,0,HR-IXPWINDi_r2_v1.2.,2013-01-26 23:08:00,
2013-01-26 18:13:00,39.9,25.5,30.30,NNE,14,7.0,9.0,56,0.00,,,0.00,0,HR-IXPWINDi_r2_v1.2.,2013-01-26 23:13:00,
2013-01-26 18:18:00,39.4,25.0,30.31,NW,308,2.0,9.0,56,0.00,,,0.00,0,HR-IXPWINDi_r2_v1.2.,2013-01-26 23:18:00,
2013-01-26 18:23:00,38.0,24.9,30.31,NW,306,0.0,9.0,59,0.00,,,0.00,0,HR-IXPWINDi_r2_v1.2.,2013-01-26 23:23:00,
2013-01-26 18:28:00,36.5,24.7,30.31,ESE,104,0.0,4.0,62,0.00,,,0.00,0,HR-IXPWINDi_r2_v1.2.,2013-01-26 23:28:00,
2013-01-26 18:33:00,35.5,24.9,30.32,ESE,114,0.0,4.0,65,0.00,,,0.00,0,HR-IXPWINDi_r2_v1.2.,2013-01-26 23:33:00,
2013-01-26 18:39:00,34.7,24.9,30.32,ESE,114,0.0,2.0,67,0.00,,,0.00,0,HR-IXPWINDi_r2_v1.2.,2013-01-26 23:39:00,
2013-01-26 18:44:00,34.2,25.1,30.32,ESE,114,0.0,0.0,69,0.00,,,0.00,0,HR-IXPWINDi_r2_v1.2.,2013-01-26 23:44:00,
2013-01-26 18:49:00,34.0,25.2,30.32,North,360,0.0,3.0,70,0.00,,,0.00,0,HR-IXPWINDi_r2_v1.2.,2013-01-26 23:49:00,
2013-01-26 18:54:00,33.7,25.6,30.32,North,360,2.0,3.0,72,0.00,,,0.00,0,HR-IXPWINDi_r2_v1.2.,2013-01-26 23:54:00,
2013-01-26 18:59:00,33.5,25.1,30.32,North,360,0.0,3.0,71,0.00,,,0.00,0,HR-IXPWINDi_r2_v1.2.,2013-01-26 23:59:00,
2013-01-26 19:04:00,32.9,25.2,30.31,North,360,0.0,2.0,73,0.00,,,0.00,0,HR-IXPWINDi_r2_v1.2.,2013-01-27 00:04:00,
2013-01-26 19:10:00,32.5,25.1,30.31,North,360,0.0,1.0,74,0.00,,,0.00,0,HR-IXPWINDi_r2_v1.2.,2013-01-27 00:10:00,
2013-01-26 19:15:00,32.5,25.5,30.32,North,360,0.0,2.0,75,0.00,,,0.00,0,HR-IXPWINDi_r2_v1.2.,2013-01-27 00:15:00,
2013-01-26 19:20:00,32.0,25.0,30.32,North,360,0.0,2.0,75,0.00,,,0.00,0,HR-IXPWINDi_r2_v1.2.,2013-01-27 00:20:00,
2013-01-26 19:25:00,31.2,24.5,30.33,North,360,0.0,0.0,76,0.00,,,0.00,0,HR-IXPWINDi_r2_v1.2.,2013-01-27 00:25:00,
2013-01-26 19:31:00,31.4,25.6,30.33,North,360,0.0,2.0,79,0.00,,,0.00,0,HR-IXPWINDi_r2_v1.2.,2013-01-27 00:31:00,
2013-01-26 19:36:00,31.5,25.4,30.33,North,360,0.0,2.0,78,0.00,,,0.00,0,HR-IXPWINDi_r2_v1.2.,2013-01-27 00:36:00,
2013-01-26 19:41:00,31.4,25.3,30.33,North,360,0.0,1.0,78,0.00,,,0.00,0,HR-IXPWINDi_r2_v1.2.,2013-01-27 00:41:00,
2013-01-26 19:46:00,31.9,25.8,30.33,North,360,0.0,1.0,78,0.00,,,0.00,0,HR-IXPWINDi_r2_v1.2.,2013-01-27 00:46:00,
2013-01-26 19:51:00,31.7,25.3,30.33,North,360,0.0,1.0,77,0.00,,,0.00,0,HR-IXPWINDi_r2_v1.2.,2013-01-27 00:51:00,
2013-01-26 19:57:00,30.2,24.2,30.33,North,360,0.0,0.0,78,0.00,,,0.00,0,HR-IXPWINDi_r2_v1.2.,2013-01-27 00:57:00,
2013-01-26 20:02:00,30.0,24.9,30.33,North,360,0.0,0.0,81,0.00,,,0.00,0,HR-IXPWINDi_r2_v1.2.,2013-01-27 01:02:00,
2013-01-26 20:07:00,30.1,24.7,30.33,North,360,0.0,0.0,80,0.00,,,0.00,0,HR-IXPWINDi_r2_v1.2.,2013-01-27 01:07:00,
2013-01-26 20:12:00,29.5,24.4,30.34,North,360,0.0,1.0,81,0.00,,,0.00,0,HR-IXPWINDi_r2_v1.2.,2013-01-27 01:12:00,
2013-01-26 20:17:00,29.8,25.0,30.34,North,360,0.0,1.0,82,0.00,,,0.00,0,HR-IXPWINDi_r2_v1.2.,2013-01-27 01:17:00,
2013-01-26 20:22:00,29.5,24.4,30.34,North,360,0.0,1.0,81,0.00,,,0.00,0,HR-IXPWINDi_r2_v1.2.,2013-01-27 01:22:00,
2013-01-26 20:28:00,29.2,24.1,30.34,North,360,0.0,1.0,81,0.00,,,0.00,0,HR-IXPWINDi_r2_v1.2.,2013-01-27 01:28:00,
2013-01-26 20:33:00,29.0,24.5,30.34,North,360,0.0,2.0,83,0.00,,,0.00,0,HR-IXPWINDi_r2_v1.2.,2013-01-27 01:33:00,
2013-01-26 20:38:00,29.1,24.6,30.34,North,360,0.0,2.0,83,0.00,,,0.00,0,HR-IXPWINDi_r2_v1.2.,2013-01-27 01:38:00,
2013-01-26 20:43:00,28.8,24.0,30.34,North,360,0.0,0.0,82,0.00,,,0.00,0,HR-IXPWINDi_r2_v1.2.,2013-01-27 01:43:00,
2013-01-26 20:48:00,28.7,24.2,30.34,North,360,0.0,0.0,83,0.00,,,0.00,0,HR-IXPWINDi_r2_v1.2.,2013-01-27 01:48:00,
2013-01-26 20:54:00,28.2,23.7,30.34,North,360,0.0,0.0,83,0.00,,,0.00,0,HR-IXPWINDi_r2_v1.2.,2013-01-27 01:54:00,
2013-01-26 20:59:00,28.0,23.8,30.35,North,360,0.0,0.0,84,0.00,,,0.00,0,HR-IXPWINDi_r2_v1.2.,2013-01-27 01:59:00,
2013-01-26 21:04:00,27.9,23.7,30.35,North,360,0.0,0.0,84,0.00,,,0.00,0,HR-IXPWINDi_r2_v1.2.,2013-01-27 02:04:00,
2013-01-26 21:09:00,28.0,24.1,30.35,North,360,0.0,1.0,85,0.00,,,0.00,0,HR-IXPWINDi_r2_v1.2.,2013-01-27 02:09:00,
2013-01-26 21:14:00,27.9,23.7,30.35,North,360,0.0,1.0,84,0.00,,,0.00,0,HR-IXPWINDi_r2_v1.2.,2013-01-27 02:14:00,
2013-01-26 21:19:00,27.3,23.4,30.35,North,360,0.0,0.0,85,0.00,,,0.00,0,HR-IXPWINDi_r2_v1.2.,2013-01-27 02:19:00,
2013-01-26 21:24:00,27.2,23.3,30.35,North,360,0.0,2.0,85,0.00,,,0.00,0,HR-IXPWINDi_r2_v1.2.,2013-01-27 02:24:00,
2013-01-26 21:30:00,27.2,23.3,30.35,North,360,0.0,2.0,85,0.00,,,0.00,0,HR-IXPWINDi_r2_v1.2.,2013-01-27 02:30:00,
2013-01-26 21:35:00,27.1,23.5,30.36,North,360,0.0,1.0,86,0.00,,,0.00,0,HR-IXPWINDi_r2_v1.2.,2013-01-27 02:35:00,
2013-01-26 21:40:00,27.1,23.2,30.36,North,360,0.0,0.0,85,0.00,,,0.00,0,HR-IXPWINDi_r2_v1.2.,2013-01-27 02:40:00,
2013-01-26 21:45:00,27.0,23.4,30.37,North,360,0.0,1.0,86,0.00,,,0.00,0,HR-IXPWINDi_r2_v1.2.,2013-01-27 02:45:00,
2013-01-26 21:50:00,27.8,24.2,30.37,North,360,0.0,1.0,86,0.00,,,0.00,0,HR-IXPWINDi_r2_v1.2.,2013-01-27 02:50:00,
2013-01-26 21:55:00,27.9,24.0,30.38,North,360,0.0,0.0,85,0.00,,,0.00,0,HR-IXPWINDi_r2_v1.2.,2013-01-27 02:55:00,
2013-01-26 22:01:00,27.8,23.6,30.37,North,360,0.0,0.0,84,0.00,,,0.00,0,HR-IXPWINDi_r2_v1.2.,2013-01-27 03:01:00,
2013-01-26 22:06:00,26.9,22.7,30.37,NE,39,0.0,2.0,84,0.00,,,0.00,0,HR-IXPWINDi_r2_v1.2.,2013-01-27 03:06:00,
2013-01-26 22:11:00,26.3,22.7,30.37,NE,39,0.0,2.0,86,0.00,,,0.00,0,HR-IXPWINDi_r2_v1.2.,2013-01-27 03:11:00,
2013-01-26 22:16:00,26.2,22.9,30.38,NE,39,0.0,0.0,87,0.00,,,0.00,0,HR-IXPWINDi_r2_v1.2.,2013-01-27 03:16:00,
2013-01-26 22:21:00,26.4,23.1,30.38,NE,39,0.0,1.0,87,0.00,,,0.00,0,HR-IXPWINDi_r2_v1.2.,2013-01-27 03:21:00,
2013-01-26 22:27:00,26.4,23.1,30.38,NE,39,0.0,2.0,87,0.00,,,0.00,0,HR-IXPWINDi_r2_v1.2.,2013-01-27 03:27:00,
2013-01-26 22:32:00,27.2,23.6,30.38,NE,39,0.0,2.0,86,0.00,,,0.00,0,HR-IXPWINDi_r2_v1.2.,2013-01-27 03:32:00,
2013-01-26 22:37:00,27.0,23.4,30.38,NE,39,0.0,1.0,86,0.00,,,0.00,0,HR-IXPWINDi_r2_v1.2.,2013-01-27 03:37:00,
2013-01-26 22:42:00,26.5,22.9,30.38,NE,39,1.0,2.0,86,0.00,,,0.00,0,HR-IXPWINDi_r2_v1.2.,2013-01-27 03:42:00,
2013-01-26 22:47:00,26.1,22.8,30.39,NE,38,1.0,2.0,87,0.00,,,0.00,0,HR-IXPWINDi_r2_v1.2.,2013-01-27 03:47:00,
2013-01-26 22:52:00,25.7,22.4,30.39,NE,38,0.0,2.0,87,0.00,,,0.00,0,HR-IXPWINDi_r2_v1.2.,2013-01-27 03:52:00,
2013-01-26 22:58:00,25.4,22.3,30.39,NE,38,0.0,1.0,88,0.00,,,0.00,0,HR-IXPWINDi_r2_v1.2.,2013-01-27 03:58:00,
2013-01-26 23:03:00,25.3,22.2,30.39,NE,38,0.0,0.0,88,0.00,,,0.00,0,HR-IXPWINDi_r2_v1.2.,2013-01-27 04:03:00,
2013-01-26 23:08:00,25.6,22.8,30.40,NE,38,0.0,1.0,89,0.00,,,0.00,0,HR-IXPWINDi_r2_v1.2.,2013-01-27 04:08:00,
2013-01-26 23:13:00,26.0,22.9,30.40,NE,38,0.0,1.0,88,0.00,,,0.00,0,HR-IXPWINDi_r2_v1.2.,2013-01-27 04:13:00,
2013-01-26 23:18:00,26.1,23.0,30.40,NE,38,0.0,1.0,88,0.00,,,0.00,0,HR-IXPWINDi_r2_v1.2.,2013-01-27 04:18:00,
2013-01-26 23:24:00,26.4,23.1,30.40,NE,38,0.0,1.0,87,0.00,,,0.00,0,HR-IXPWINDi_r2_v1.2.,2013-01-27 04:24:00,
2013-01-26 23:29:00,25.4,22.1,30.40,NE,38,0.0,0.0,87,0.00,,,0.00,0,HR-IXPWINDi_r2_v1.2.,2013-01-27 04:29:00,
2013-01-26 23:34:00,25.0,22.0,30.40,NE,38,0.0,0.0,88,0.00,,,0.00,0,HR-IXPWINDi_r2_v1.2.,2013-01-27 04:34:00,
2013-01-26 23:39:00,24.7,21.9,30.40,NE,38,0.0,0.0,89,0.00,,,0.00,0,HR-IXPWINDi_r2_v1.2.,2013-01-27 04:39:00,
2013-01-26 23:44:00,24.8,22.0,30.40,NE,38,0.0,0.0,89,0.00,,,0.00,0,HR-IXPWINDi_r2_v1.2.,2013-01-27 04:44:00,
2013-01-26 23:50:00,25.0,22.2,30.40,NE,38,0.0,2.0,89,0.00,,,0.00,0,HR-IXPWINDi_r2_v1.2.,2013-01-27 04:50:00,
2013-01-26 23:55:00,24.7,21.9,30.40,NE,38,0.0,2.0,89,0.00,,,0.00,0,HR-IXPWINDi_r2_v1.2.,2013-01-27 04:55:00,